Weather Service Report


522 
ASUS45 KBOI 230910
RWRID 

IDAHO REGIONAL WEATHER ROUNDUP
NATIONAL WEATHER SERVICE BOISE ID
300 AM MDT SAT JUL 23 2016

NOTE: "FAIR" INDICATES FEW OR NO CLOUDS BELOW 12000 FEET
WITH NO SIGNIFICANT WEATHER AND/OR OBSTRUCTIONS TO VISIBILITY

IDZ012-014-231000-
SOUTHWEST IDAHO

  
CITY           SKY/WX    TMP DP  RH WIND       PRES   REMARKS
BOISE          CLEAR     65  43  44 W12       30.11S                  
CALDWELL       NOT AVBL                                               
MOUNTAIN HOME  CLEAR     66  43  42 W17       30.10R                  
$$

IDZ016-017-231000-
SOUTHCENTRAL IDAHO

  
CITY           SKY/WX    TMP DP  RH WIND       PRES   REMARKS
BURLEY         CLEAR     54  43  66 CALM      30.13R                  
JEROME         CLEAR     63  40  42 SW9       30.15R                  
TWIN FALLS     CLEAR     63  37  38 SW15G25   30.15R                  
$$

IDZ019>023-231000-
SOUTHEAST IDAHO

  
CITY           SKY/WX    TMP DP  RH WIND       PRES   REMARKS
IDAHO FALLS    CLEAR     57  38  48 SW13      30.13R                  
POCATELLO      CLEAR     64  34  32 SW14      30.14R                  
REXBURG        CLEAR     60  34  37 S6        30.13R                  
$$

IDZ006-010-011-018-031-032-231000-
CENTRAL IDAHO MOUNTAINS

  
CITY           SKY/WX    TMP DP  RH WIND       PRES   REMARKS
MCCALL         CLEAR     57  41  55 N6        30.23S                  
HAILEY         CLEAR     54  32  43 NW9       30.20S                  
STANLEY          N/A     42  32  67 S5        30.29S                  
SALMON         CLEAR     59  43  55 N5        30.16S                  
CHALLIS        CLEAR     56  36  47 CALM      30.18R                  
$$

IDZ002-004-006-007-026-231000-
NORTHERN IDAHO

  
CITY           SKY/WX    TMP DP  RH WIND       PRES   REMARKS
LEWISTON       CLEAR     66  47  50 SW3       30.15R                  
LOWELL           N/A     58  52  80 NW3       30.18R                  
COEUR D'ALENE  CLEAR     54  48  82 NE3       30.13F                  
MULLAN PASS    CLEAR     45  43  93 NW6       30.25S                  
$$
  

Return to Home page


Western Regional Climate Center, wrcc@dri.edu